Weather in Bor

Russia / Kostroma Oblast     58°16′05″N   43°22′20″E
temp.,
°C
wind,
m/s
gust,
m/s
humid.,
%
clouds,
%
prec.,
mm/h
press.,
hPa
HPBL,
m
2 july, sat
sat200:00+10nnw23735 0.0 102237
03:00+9nnw2381100 0.0 102152
06:00+13nw256856 0.0 1021173
09:00+20nnw354469 0.0 1019724
12:00+20nw3552100 0.0 1018470
15:00+18nw376299 0.0 1018318
18:00+22n13536 0.0 1016834
21:00+18sw11702 0.0 101511
3 july, sun
sun300:00+16nne267817 0.0 1016138
03:00+14nne37890 0.0 1016177
06:00+16ne37810 0.0 1017321
09:00+20ne35545 0.0 10171245
12:00+24ne35420 0.0 10161609
15:00+25nne34385 0.0 10161871
18:00+24nne24475 0.0 10151204
21:00+17nne22735 0.0 101611
4 july, mon
mon400:00+15nnw117911 0.0 101611
03:00+14nw228492 0.0 101620
06:00+18n247343 0.0 1017160
09:00+24nne24495 0.0 1017840
12:00+27nne24365 0.0 10162427
15:00+28nne23315 0.0 10152553
18:00+26ne24445 0.0 1015300
21:00+19se11655 0.0 101611
5 july, tue
tue500:00+16ssw12764 0.0 101712
03:00+15sw11800 0.0 101711
06:00+19ssw126899 0.0 101796
09:00+25s224814 0.0 1017503
12:00+29sw11340 0.0 10162317
15:00+30w12306 0.0 10152832
18:00+28wsw124646 0.0 1014136
21:00+20wnw228231 0.0 101517
6 july, wed
wed600:00+18wsw23915 0.9 101557
03:00+16sw22965 0.9 101531
06:00+18sw25865 0.0 1015192
09:00+25wsw355982 0.0 1014708
12:00+29sw3543100 0.0 10131888
15:00+28wsw3648100 0.0 1012846
18:00+28sw25515 0.0 1011693
21:00+21wsw2281100 0.3 101228